Location: Unspecified
(0.0000°N, 0.0000°E)
Time: 15:50:34
(UTC+00:00)

AO-7 - Pass Details

Date: 02 October 2021
Orbit: 1439 x 1459 km, 101.9° (Epoch: 22 October)

Event Time Altitude Azimuth Distance (km) Brightness Sun altitude
Rises 02:58:38 0° 32° (NNE) 4,519 ? -42.6°
Reaches altitude 10° 03:01:37 10° 39° (NE) 3,543 ? -41.8°
Maximum altitude 03:09:13 41° 107° (ESE) 1,978 ? -39.9°
Drops below altitude 10° 03:16:48 10° 173° (S) 3,554 ? -38.1°
Sets 03:19:46 0° 180° (S) 4,535 ? -37.3°
